This is the latest recevied weather packets stored in our database for station/object JS2HDO-13. If no packets are shown the sender has not sent any weather packets the latest 1 day(s).
| Time | Temp. | Humidity | Pressure | Rain* | Wind** | Luminosity | Snow |
|---|---|---|---|---|---|---|---|
| 1778043534 | 16.67° C | 85% | 1018.7 hPa | 0 mm | - | - | - |
| 1778042935 | 16.67° C | 86% | 1018.8 hPa | 0 mm | - | - | - |
| 1778042335 | 16.67° C | 85% | 1018.9 hPa | 0 mm | - | - | - |
| 1778042217 | 16.67° C | 86% | 1019 hPa | 0 mm | - | - | - |
| 1778041735 | 16.67° C | 85% | 1019.2 hPa | 0 mm | - | - | - |
| 1778041018 | 16.67° C | 85% | 1019.4 hPa | 0 mm | - | - | - |
| 1778040536 | 16.67° C | 85% | 1019.4 hPa | 0 mm | - | - | - |
| 1778039934 | 16.67° C | 85% | 1019.5 hPa | 0 mm | - | - | - |
| 1778038734 | 16.11° C | 85% | 1019.7 hPa | 0 mm | - | - | - |
| 1778038617 | 16.11° C | 84% | 1019.7 hPa | 0 mm | - | - | - |
| 1778038135 | 16.11° C | 85% | 1019.9 hPa | 0 mm | - | - | - |
| 1778036935 | 15.56° C | 86% | 1020.2 hPa | 0 mm | - | - | - |
| 1778036336 | 15.56° C | 86% | 1020.4 hPa | 0 mm | - | - | - |
| 1778035734 | 15.56° C | 87% | 1020.4 hPa | 0 mm | - | - | - |
| 1778035134 | 15° C | 87% | 1020.6 hPa | 0 mm | - | - | - |
| 1778034535 | 15° C | 87% | 1020.6 hPa | 0 mm | - | - | - |
| 1778033935 | 15.56° C | 85% | 1020.7 hPa | 0 mm | - | - | - |
| 1778033817 | 15.56° C | 85% | 1020.7 hPa | 0 mm | - | - | - |
| 1778033335 | 15.56° C | 84% | 1020.8 hPa | 0 mm | - | - | - |
| 1778032134 | 16.11° C | 81% | 1021 hPa | 0 mm | - | - | - |
| 1778031534 | 16.11° C | 80% | 1021.1 hPa | 0 mm | - | - | - |
| 1778031416 | 16.11° C | 80% | 1021.2 hPa | 0 mm | - | - | - |
| 1778030934 | 16.67° C | 79% | 1021.3 hPa | 0 mm | - | - | - |
| 1778030334 | 16.67° C | 80% | 1021.4 hPa | 0 mm | - | - | - |
| 1778029735 | 16.67° C | 80% | 1021.4 hPa | 0 mm | - | - | - |
* Rain latest hour (hover to see other rain measurements)
** Current wind speed in m/s (hover to see current wind gust speed)